Location: ???????????
(55.5758°N, 38.4970°E)
Time: 17:31:51
(UTC+00:00)

PKM - Pass Details

Date: 15 November 2025
Orbit: 394 x 13733 km, 55.4° (Epoch: 14 December)

Event Time Altitude Azimuth Distance (km) Brightness Sun altitude
Exits shadow 03:19:04 20° 281° (WNW) 2,108 6.1 -14.0°
Maximum altitude 03:22:43 58° 208° (SSW) 713 4.3 -13.5°
Drops below altitude 10° 03:25:36 10° 127° (SE) 1,552 7.2 -13.1°
Sets 03:27:08 0° 123° (ESE) 2,308 8.5 -12.9°
